This is the latest recevied weather packets stored in our database for station/object W2OBX. If no packets are shown the sender has not sent any weather packets the latest 10 day(s).
| Time | Temp. | Humidity | Pressure | Rain* | Wind** | Luminosity | Snow |
|---|---|---|---|---|---|---|---|
| 1778158216 | 13.33° C | 99% | 1013.1 hPa | 0 mm | - | 19 W/m² | - |
| 1778157912 | 13.33° C | 99% | 1013.5 hPa | 0 mm | - | 14 W/m² | - |
| 1778157610 | 12.78° C | 99% | 1013.3 hPa | 0 mm | - | 16 W/m² | - |
| 1778157308 | 12.78° C | 99% | 1013.4 hPa | 0 mm | - | 14 W/m² | - |
| 1778157004 | 12.78° C | 99% | 1013 hPa | 0 mm | - | 22 W/m² | - |
| 1778156699 | 12.78° C | 99% | 1013.2 hPa | 0 mm | - | 12 W/m² | - |
| 1778156396 | 12.78° C | 99% | 1013.3 hPa | 0 mm | - | 11 W/m² | - |
| 1778156091 | 13.33° C | 99% | 1013.6 hPa | 0 mm | - | 9 W/m² | - |
| 1778155788 | 13.33° C | 99% | 1012.9 hPa | 0 mm | - | 7 W/m² | - |
| 1778155484 | 13.33° C | 99% | 1013 hPa | 0 mm | - | 4 W/m² | - |
| 1778155181 | 12.78° C | 99% | 1012.7 hPa | 0 mm | - | 6 W/m² | - |
| 1778154877 | 13.33° C | 99% | 1012.4 hPa | 0 mm | - | 4 W/m² | - |
| 1778154573 | 13.33° C | 99% | 1012.9 hPa | 0 mm | - | 4 W/m² | - |
| 1778154269 | 13.33° C | 99% | 1012.6 hPa | 0 mm | - | 5 W/m² | - |
| 1778153967 | 13.33° C | 99% | 1012.9 hPa | 0 mm | - | 3 W/m² | - |
| 1778153663 | 13.33° C | 99% | 1012.9 hPa | 0 mm | - | 3 W/m² | - |
| 1778153361 | 13.33° C | 99% | 1012.7 hPa | 0 mm | - | 4 W/m² | - |
| 1778153059 | 13.33° C | 99% | 1012.9 hPa | 0 mm | - | 3 W/m² | - |
| 1778152756 | 12.78° C | 99% | 1012.9 hPa | 0 mm | - | 1 W/m² | - |
| 1778152453 | 13.33° C | 99% | 1013 hPa | 0 mm | - | 1 W/m² | - |
| 1778152149 | 13.33° C | 99% | 1013 hPa | 0 mm | - | 1 W/m² | - |
| 1778151845 | 13.33° C | 99% | 1012.9 hPa | 0 mm | - | 1 W/m² | - |
| 1778151542 | 13.33° C | 99% | 1012.9 hPa | 0 mm | - | 1 W/m² | - |
| 1778151239 | 13.33° C | 99% | 1013 hPa | 0 mm | - | 0 W/m² | - |
| 1778150935 | 13.33° C | 99% | 1012.6 hPa | 0 mm | - | 1 W/m² | - |
* Rain latest hour (hover to see other rain measurements)
** Current wind speed in m/s (hover to see current wind gust speed)